SCP
0 0 0 0 -0 -0 -0 0 0 0 0 0 -0 -0 -0 -0 0 0 0 -0 0 -0 -0 0 0 0 0 0 0 0 0 0 0 0 0 0 0 0 0 0 0 0 0 0 0 0 0 0 0 0 0 0 0 0
-0 0 0 0 0 -0 -0 0 0 0 0 0 0 0 0 -0 -0 -0 -0 0 -0 0 -0 0 0 0 0 0 0 0 0 0 0 0 0 0 0 0 0 -0 0 -0 0 0 0 0 0 0 0 0 0 0 0 0
-0 -0 0 -0 0 0 -0 0 -0 0 0 0 0 0 0 -0 0 0 0 0 0 0 0 0 0 -0 0 0 0 0 0 0 0 0 0 0 0 0 -0 0 0 0 0 0 0 0 0 0 0 0 0 0 0 0
-0 -0 -0 -0 -0 -0 0 -0 0 0 0 0 0 0 0 -0 -0 -0 -0 -0 -0 0 0 0 0 0 0 0 -0 0 -0 0 0 0 0 0 0 0 -0 -0 -0 0 0 0 0 0 0 0 0 0 0 0 0 0
0 -0 -0 -0 -0 -0 -0 0 0 0 0 0 0 0 0 0 -0 -0 0 0 0 0 -0 0 0 0 0 -0 -0 -0 -0 0 0 0 0 0 0 0 0 0 0 0 0 0 0 0 0 0 0 0 0 0 0 0
0 0 -0 -0 -0 -0 -0 -0 0 0 0 0 0 0 0 -0 -0 -0 0 0 0 0 0 -0 0 0 -0 -0 0 0 0 0 0 0 0 0 0 0 0 0 0 0 0 0 0 0 0 0 0 0 0 0 0 0
0 0 0 -0 -0 -0 -0 -0 -0 0 0 0 0 0 0 0 0 0 0 0 -0 0 0 -0 0 0 0 -0 0 0 0 0 0 0 0 0 0 0 0 0 0 0 0 0 0 0 0 0 0 0 0 0 0 0
0 -0 -0 0 -0 -0 -0 -0 -0 -0 0 0 0 0 0 0 -0 0 0 0 0 0 0 0 0 0 0 0 0 0 0 0 0 0 0 0 0 0 0 0 0 0 0 0 0 0 0 0 0 0 0 0 0 0
-0 -0 -0 -0 0 -0 -0 -0 -0 -0 -0 0 0 0 0 0 0 0 0 0 0 0 0 0 0 0 0 0 0 0 0 0 0 0 0 0 0 0 0 0 0 0 0 0 0 0 0 0 0 0 0 0 0 0
-0 -0 -0 -0 -0 0 0 -0 -0 -0 -0 0 0 0 0 0 0 0 0 0 0 0 0 0 0 0 0 0 0 0 0 0 0 0 0 0 0 0 0 0 0 0 0 0 0 0 0 0 0 0 0 0 0 0
-0 -0 -0 -0 -0 -0 0 -0 -0 -0 0 0 0 0 0 -0 0 0 0 0 0 0 0 0 0 0 0 0 0 0 0 0 0 0 0 0 0 0 0 0 0 0 0 0 0 0 0 0 0 0 0 0 0 0
-0 -0 -0 -0 -0 -0 -0 -0 -0 0 0 0 0 0 0 0 0 0 0 0 0 0 0 0 0 0 0 0 0 0 0 0 0 0 0 0 0 0 0 0 0 0 0 0 0 0 0 0 0 0 0 0 0 0
0 -0 -0 -0 -0 -0 -0 -0 0 0 0 0 0 0 0 0 0 0 0 0 0 0 0 0 0 0 0 0 0 0 0 0 0 0 0 0 0 0 0 0 0 0 0 0 0 0 0 0 0 0 0 0 0 0
0 0 -0 0 -0 -0 -0 0 0 0 0 0 0 0 0 0 0 0 0 0 0 0 0 0 0 0 0 0 0 0 0 0 0 0 0 0 0 0 0 0 0 0 0 0 0 0 0 0 0 0 0 0 0 0
0 0 0 0 0 -0 -0 0 0 0 0 0 0 0 0 0 0 0 0 0 0 0 0 0 0 0 0 0 0 0 0 0 0 0 0 0 0 0 0 0 0 0 0 0 0 0 0 0 0 0 0 0 0 0
0 0 0 0 0 0 0 0 0 0 0 0 0 0 0 0 0 0 0 0 0 0 0 0 0 0 0 0 0 0 0 0 0 0 0 0 0 0 0 0 0 0 0 0 0 0 0 0 0 0 0 0 0 0
0 0 0 0 0 0 0 0 0 0 0 0 0 0 0 0 0 0 0 0 0 0 0 0 0 0 0 0 0 0 0 0 0 0 0 0 0 0 0 0 0 0 0 0 0 0 0 0 0 0 0 0 0 0
0 0 0 0 0 0 0 0 0 0 0 0 0 0 0 0 0 0 0 0 0 0 0 0 0 0 0 0 0 0 0 0 0 0 0 0 0 0 0 0 0 0 0 0 0 0 0 0 0 0 0 0 0 0
0 0 0 0 0 0 0 0 0 0 0 0 0 0 0 0 0 0 0 0 0 0 0 0 0 0 0 0 0 0 0 0 0 0 0 0 0 0 0 0 0 0 0 0 0 0 0 0 0 0 0 0 0 0
0 0 0 0 0 0 0 0 0 0 0 0 0 0 0 0 0 0 0 0 0 0 0 0 0 0 0 0 0 0 0 0 0 0 0 0 0 0 0 0 0 0 0 0 0 0 0 0 0 0 0 0 0 0
0 0 0 0 0 0 0 0 0 0 0 0 0 0 0 0 0 0 0 0 0 0 0 0 0 0 0 0 0 0 0 0 0 0 0 0 0 0 0 0 0 0 0 0 0 0 0 0 0 0 0 0 0 0
0 0 0 0 0 0 0 0 0 0 0 0 0 0 0 0 0 0 0 0 0 0 0 0 0 0 0 0 0 0 0 0 0 0 0 0 0 0 0 0 0 0 0 0 0 0 0 0 0 0 0 0 0 0
0 0 0 0 0 0 0 0 0 0 0 0 0 0 0 0 0 0 0 0 0 0 0 0 0 0 0 0 0 0 0 0 0 0 0 0 0 0 0 0 0 0 0 0 0 0 0 0 0 0 0 0 0 0
0 0 0 0 0 0 0 0 0 0 0 0 0 0 0 0 0 0 0 0 0 0 0 0 0 0 0 0 0 0 0 0 0 0 0 0 0 0 0 0 0 0 0 0 0 0 0 0 0 0 0 0 0 0
0 0 0 0 0 0 0 0 0 0 0 0 0 0 0 0 0 0 0 0 0 0 0 0 0 0 0 0 0 0 0 0 0 0 0 0 0 0 0 0 0 0 0 0 0 0 0 0 0 0 0 0 0 0
0 0 0 0 0 0 0 0 0 0 0 0 0 0 0 0 0 0 0 0 0 0 0 0 0 0 0 0 0 0 0 0 0 0 0 0 0 0 0 0 0 0 0 0 0 0 0 0 0 0 0 0 0 0
0 0 0 0 0 0 0 0 0 0 0 0 0 0 0 0 0 0 0 0 0 0 0 0 0 0 0 0 0 0 0 0 0 0 0 0 0 0 0 0 0 0 0 0 0 0 0 0 0 0 0 0 0 0
0 0 0 0 0 0 0 0 0 0 0 0 0 0 0 0 0 0 0 0 0 0 0 0 0 0 0 0 0 0 0 0 0 0 0 0 0 0 0 0 0 0 0 0 0 0 0 0 0 0 0 0 0 0
0 0 0 0 0 0 0 0 0 0 0 0 0 0 0 0 0 0 0 0 0 0 0 0 0 0 0 0 0 0 0 0 0 0 0 0 0 0 0 0 0 0 0 0 0 0 0 0 0 0 0 0 0 0
0 0 0 0 0 0 0 0 0 0 0 0 0 0 0 0 0 0 0 0 0 0 0 0 0 0 0 0 0 0 0 0 0 0 0 0 0 0 0 0 0 0 0 0 0 0 0 0 0 0 0 0 0 0
0 0 0 0 0 0 0 0 0 0 0 0 0 0 0 0 0 0 0 0 0 0 0 0 0 0 0 0 0 0 0 0 0 0 0 0 0 0 0 0 0 0 0 0 0 0 0 0 0 0 0 0 0 0
0 0 0 0 0 0 0 0 0 0 0 0 0 0 0 0 0 0 0 0 0 0 0 0 0 0 0 0 0 0 0 0 0 0 0 0 0 0 0 0 0 0 0 0 0 0 0 0 0 0 0 0 0 0
0 0 0 0 0 0 0 0 0 0 0 0 0 0 0 0 0 0 0 0 0 0 0 0 0 0 0 0 -0 0 0 0 -0 -0 -0 -0 0 0 0 0 0 0 0 0 0 0 0 0 0 0 0 0 0 0
Wind_Speed_500mb
55 60 65 71 70 70 79 82 60 47 46 42 56 75 63 55 40 31 36 31 15 4 15 18 19 15 13 18 9 8 12 9 10 14 10 8 11 11 7 9 17 26 18 22 34 27 25 22 13 35 10 7 11 20
49 53 59 64 67 60 65 74 63 41 31 38 54 57 56 48 33 20 30 18 9 7 18 28 20 16 19 16 9 28 10 12 20 9 9 5 8 4 4 8 4 8 15 11 14 12 8 7 4 9 10 13 15 28
42 46 51 57 62 57 52 61 58 54 36 28 42 41 35 35 27 14 10 7 11 17 19 14 14 11 16 18 19 10 27 15 15 18 7 5 7 4 7 12 9 3 4 6 4 7 7 13 16 12 13 21 28 30
40 40 42 48 50 52 44 41 44 39 34 31 28 28 28 25 23 8 10 13 13 8 5 9 14 15 17 20 26 31 34 21 18 20 5 4 4 6 5 2 8 3 15 13 6 6 6 26 28 23 25 29 38 42
43 37 36 39 44 47 37 32 26 25 21 19 18 18 9 11 12 11 20 22 15 10 7 16 30 20 16 16 11 13 24 19 15 6 5 3 1 6 3 7 8 11 10 11 9 14 2 5 50 41 37 40 43 51
41 40 32 32 35 38 40 23 20 15 5 9 9 8 9 11 15 20 10 7 3 8 8 5 6 6 9 11 7 2 5 3 2 3 3 5 5 8 1 6 4 16 14 9 2 25 8 12 41 42 45 44 43 47
38 40 37 29 27 30 33 31 13 9 4 10 16 16 18 23 24 17 11 11 31 30 7 7 4 1 9 9 8 6 4 1 2 5 0 0 1 7 4 9 6 20 18 17 22 30 24 36 24 45 48 49 51 48
37 36 38 34 26 24 25 27 26 14 5 3 4 10 18 25 31 32 37 40 32 12 8 4 5 1 8 3 5 8 5 2 9 4 1 0 2 1 9 8 11 23 26 32 37 19 9 38 44 53 53 54 53 52
36 35 35 37 32 27 23 22 25 25 22 22 25 29 30 12 8 12 15 15 10 12 5 2 2 4 14 5 5 5 4 2 1 2 1 3 2 12 11 10 32 45 33 26 33 18 26 43 55 56 58 61 65 60
36 36 34 34 34 36 25 22 24 24 25 22 21 8 7 6 14 14 6 5 6 5 1 3 3 4 13 10 5 7 7 3 4 4 6 2 8 16 22 19 22 46 46 38 47 31 46 52 63 64 62 57 57 58
37 36 36 34 33 36 32 25 23 25 19 10 5 6 10 11 6 5 4 5 8 1 3 2 3 5 5 3 4 5 5 4 4 3 4 3 8 7 13 16 23 38 46 42 38 32 44 53 73 78 72 62 54 51
39 40 37 37 34 30 36 32 24 22 18 13 16 21 11 3 1 6 2 4 1 4 3 4 5 6 4 4 3 2 2 1 6 7 3 6 10 15 9 9 20 33 39 37 31 22 36 48 62 67 65 60 54 51
40 40 40 37 36 28 35 34 31 25 25 19 6 6 2 3 5 9 7 5 5 7 5 4 3 4 3 3 5 2 4 3 1 3 7 9 10 17 14 16 23 29 30 32 29 31 34 45 51 54 58 53 49 47
45 43 42 37 33 34 36 32 32 26 13 5 5 7 5 5 9 8 7 5 5 6 9 5 1 1 2 1 1 2 1 2 3 4 10 3 9 19 22 26 32 38 35 33 32 40 48 54 55 51 48 48 50 47
41 44 40 28 29 42 41 37 32 23 9 8 7 8 11 5 6 5 9 5 9 14 13 6 4 2 3 2 3 3 4 8 10 8 5 6 20 14 30 38 38 38 38 38 42 49 53 53 53 53 51 48 44 39
42 45 20 39 42 41 42 42 32 12 9 10 11 4 4 1 4 9 17 11 19 21 13 5 4 4 4 2 4 11 7 11 6 6 13 22 15 17 32 41 44 42 40 38 43 48 50 53 52 49 46 42 37 34
42 38 47 44 47 44 39 32 11 11 11 9 7 12 14 5 2 7 17 16 33 19 4 4 6 12 5 0 6 9 10 7 11 19 25 21 14 19 33 43 46 47 46 46 47 49 49 48 47 46 45 40 36 34
41 44 46 42 42 40 27 7 9 10 11 10 5 7 10 8 7 9 15 31 25 15 15 8 12 5 10 10 7 8 26 27 26 26 23 19 17 25 39 46 49 50 52 53 54 53 53 52 50 45 39 38 37 36
33 41 42 43 34 29 9 7 9 7 7 4 6 8 7 5 12 11 19 37 19 11 6 7 4 7 9 11 10 17 18 18 19 26 28 27 27 32 39 45 47 49 51 53 57 57 52 46 39 37 38 37 35 35
35 33 37 35 33 10 9 8 9 8 4 6 5 7 4 3 7 13 20 30 21 8 3 7 12 14 19 21 19 21 21 25 28 32 34 31 31 39 45 49 51 49 52 53 53 52 50 49 49 48 45 39 38 37
36 34 32 32 28 19 12 8 7 4 4 6 7 8 4 6 6 12 16 24 15 14 8 36 49 47 40 39 36 35 33 33 34 34 34 29 28 40 43 48 50 53 57 60 61 59 59 57 45 42 41 40 35 35
39 33 33 28 12 10 10 9 3 3 3 3 9 7 5 4 7 9 15 16 17 24 28 33 46 45 48 53 51 52 49 47 44 42 39 35 29 39 50 54 58 62 63 62 60 58 53 44 42 43 44 39 39 41
32 26 15 14 11 10 5 7 5 4 1 4 4 1 4 4 6 11 9 18 21 21 27 38 45 49 53 53 53 50 49 47 46 43 39 35 32 31 39 48 53 57 59 58 55 53 50 43 44 47 47 47 47 47
25 10 11 10 17 6 6 6 5 4 2 1 3 5 4 5 7 3 8 12 13 13 14 19 25 31 31 31 32 27 27 36 39 41 38 39 41 38 35 39 46 52 54 53 52 52 51 51 52 54 54 52 50 50
11 14 12 11 10 5 3 1 1 3 6 5 4 5 4 7 2 6 7 6 8 5 10 12 17 25 28 32 29 20 19 22 25 33 36 39 42 43 41 41 44 48 51 55 56 54 54 53 55 57 57 55 53 51
11 18 21 14 10 11 11 9 10 12 6 6 10 3 5 4 1 11 7 9 6 3 5 10 17 23 25 31 35 32 28 25 26 30 30 36 42 48 49 48 46 44 45 49 55 56 56 54 55 57 58 56 53 53
12 14 14 15 11 13 6 5 6 4 8 12 7 8 5 5 11 8 4 10 6 8 11 20 27 34 40 43 41 38 35 35 34 35 31 31 35 42 48 54 51 41 37 34 36 43 50 51 52 52 52 52 52 51
24 22 14 23 14 13 8 6 10 13 8 12 17 9 13 14 8 2 1 3 11 18 30 37 41 42 40 37 36 34 31 30 33 33 32 32 32 34 37 42 45 48 43 34 32 32 35 39 42 44 46 48 48 46
13 21 25 9 8 10 13 15 10 14 15 22 8 7 8 7 4 4 17 27 34 40 42 38 31 25 25 27 29 27 27 26 25 27 24 23 20 12 13 18 27 32 39 41 36 34 32 31 33 35 38 41 43 44
16 33 9 9 13 13 13 19 10 14 18 18 9 9 12 14 18 30 35 30 20 15 15 21 25 26 30 32 31 27 28 26 24 24 26 24 18 15 12 13 18 23 28 34 38 39 38 37 37 38 38 39 40 41
25 22 8 9 6 8 10 14 13 14 12 12 18 17 15 16 13 6 10 12 10 15 23 21 20 24 27 29 31 32 27 24 23 23 23 24 26 29 29 23 18 21 28 34 37 37 36 34 33 34 35 36 36 36
15 17 7 7 5 9 9 9 7 6 5 4 3 3 4 6 6 3 8 9 14 22 22 23 23 25 28 30 32 32 31 29 25 24 23 19 19 21 22 25 25 21 18 18 18 19 20 22 23 24 25 26 28 31
10 9 6 7 6 7 10 9 4 3 3 3 4 3 3 3 7 1 7 13 20 17 15 17 20 23 27 31 35 37 37 36 33 26 14 11 20 25 22 13 16 10 11 11 9 9 12 15 17 20 24 28 31 31
Wind_Direction_500mb
357 2 6 8 12 15 18 20 30 37 50 82 123 139 123 130 136 160 156 179 202 287 283 256 245 234 244 193 193 146 134 205 163 204 205 202 227 214 231 185 170 189 187 226 218 217 233 152 123 181 197 75 164 164
358 2 6 10 14 18 24 28 33 44 64 108 137 146 144 153 155 151 164 175 247 309 287 290 287 272 245 247 249 192 223 169 182 196 223 189 207 230 279 249 137 198 195 182 217 203 354 210 130 204 186 153 177 162
356 1 6 10 15 19 32 34 35 51 76 121 135 150 150 157 152 156 157 208 269 282 293 261 259 280 253 246 253 236 228 220 207 204 176 195 233 151 198 231 164 163 242 180 152 186 206 247 242 205 194 182 172 165
357 358 4 9 13 20 28 43 43 49 67 89 131 143 162 177 187 227 287 290 290 283 265 261 262 306 277 285 273 258 237 224 222 193 190 186 197 192 231 292 314 141 154 163 252 232 292 246 220 199 176 165 157 158
360 358 0 4 11 17 25 37 48 56 70 89 120 150 167 181 190 291 300 291 281 256 259 281 283 268 300 311 318 238 231 222 200 161 196 201 115 208 246 79 244 200 166 193 238 160 58 237 194 181 173 164 160 159
357 1 357 360 3 11 18 31 50 36 115 136 163 201 216 230 260 292 292 258 14 346 272 282 252 247 302 297 315 255 199 198 260 124 147 196 214 242 67 231 184 204 194 218 246 156 186 132 160 172 168 164 160 161
349 357 359 354 355 358 5 13 4 44 11 232 221 218 231 241 251 248 251 276 302 315 260 293 306 317 342 323 309 316 338 234 129 123 114 8 178 38 209 226 154 200 195 191 175 149 105 159 171 173 169 162 162 157
346 349 354 357 348 345 348 353 359 331 271 311 334 310 296 263 260 263 268 278 287 264 249 257 270 276 19 329 305 338 286 196 44 131 105 252 189 238 252 220 201 183 178 178 181 196 228 181 173 172 176 169 164 162
342 344 346 352 353 340 330 333 336 337 316 286 286 299 298 251 245 240 249 280 250 231 269 180 258 306 350 350 290 277 303 199 173 147 120 227 185 229 220 175 201 198 187 197 185 188 169 173 170 172 175 173 171 165
335 339 342 344 348 350 332 321 326 327 324 315 294 268 246 230 295 284 287 200 216 236 329 78 213 271 347 357 333 309 4 6 318 22 320 227 261 281 255 229 233 212 202 188 165 165 176 178 180 178 181 181 181 169
331 330 334 339 340 348 346 331 324 329 325 312 272 249 281 309 277 255 265 33 347 18 35 131 214 306 347 321 309 9 336 346 300 15 313 296 276 248 293 241 218 204 200 194 204 215 206 200 186 179 178 180 178 171
333 329 326 330 337 334 346 341 330 325 322 279 272 281 280 241 201 63 302 318 233 250 195 182 200 235 273 270 248 202 235 18 269 348 313 269 247 289 279 200 192 194 192 194 201 198 189 190 190 184 175 171 171 170
334 332 326 323 327 327 338 341 336 323 318 295 250 247 257 293 40 152 243 267 271 188 191 180 177 217 259 260 268 259 179 192 106 254 241 244 293 290 248 213 189 186 190 183 177 170 174 180 180 179 169 169 170 173
327 331 322 319 317 321 333 331 336 327 312 261 229 284 171 255 245 190 191 184 171 169 162 153 105 5 329 111 314 215 50 201 194 255 242 244 284 284 224 206 196 186 184 182 173 166 168 172 170 169 172 174 179 181
320 323 322 309 312 317 321 322 322 315 253 241 189 240 216 256 223 210 206 220 197 168 152 136 89 1 3 82 39 83 348 260 218 237 246 269 315 243 200 196 196 189 182 178 176 173 171 172 172 172 177 180 182 189
321 330 327 322 320 317 314 315 314 275 240 224 218 127 185 88 235 219 208 218 179 162 145 111 106 59 258 161 153 215 170 231 250 226 268 301 294 218 198 191 190 192 188 183 180 178 176 178 181 181 181 186 192 198
311 320 331 332 330 322 313 309 281 232 236 227 241 212 203 246 158 167 174 177 169 164 185 138 145 215 106 66 245 200 212 221 238 286 304 299 268 208 190 188 189 190 191 189 185 183 184 183 185 189 194 197 202 205
291 310 317 329 336 335 313 241 239 247 251 228 215 192 199 211 177 177 184 170 166 195 167 196 132 164 205 195 241 235 241 264 287 295 295 291 240 203 196 194 194 196 196 194 192 190 191 193 197 199 200 205 210 214
291 297 307 321 322 328 276 248 235 257 237 237 232 207 205 211 215 197 188 182 181 175 178 152 142 211 226 214 226 253 253 261 286 301 295 276 234 211 202 201 202 199 198 198 198 201 203 206 208 208 214 219 221 223
280 291 299 310 322 286 262 250 237 253 238 186 196 183 219 221 181 184 180 183 182 207 208 217 223 218 212 242 259 267 274 287 292 290 288 283 244 216 206 205 205 202 203 203 206 209 209 211 211 214 220 223 226 231
299 287 296 304 313 226 262 253 250 247 199 194 180 180 233 195 200 185 184 181 194 224 239 233 237 250 259 267 270 272 275 281 283 278 277 282 253 223 214 209 208 211 211 210 212 213 216 221 222 226 230 233 234 234
287 288 289 297 240 240 261 233 228 223 233 200 178 204 208 209 199 195 175 193 234 241 226 258 268 274 274 277 279 278 277 275 273 269 270 263 247 226 220 218 213 215 216 219 222 224 228 229 226 229 234 237 238 238
278 275 269 225 227 234 243 228 209 221 189 224 185 355 236 195 178 178 251 232 251 256 263 275 284 288 287 284 280 277 277 274 269 261 262 254 246 241 236 233 229 229 229 230 229 230 232 231 230 233 237 239 242 244
246 231 228 220 207 230 194 197 208 176 187 179 148 271 232 179 168 191 256 254 248 285 306 325 326 321 315 307 299 294 283 272 268 259 256 245 241 240 242 238 236 236 237 239 238 237 235 232 230 233 237 242 246 249
193 218 200 217 202 127 179 236 282 113 246 190 173 247 190 160 197 232 241 272 233 300 342 4 15 14 9 13 6 339 297 293 286 272 260 256 250 246 245 242 239 237 237 238 238 238 238 237 236 239 242 246 251 255
213 202 188 196 168 174 186 174 203 205 172 190 225 139 153 121 182 245 227 216 220 228 356 6 3 1 356 349 345 345 335 312 293 279 272 260 256 252 251 251 249 248 250 248 245 243 242 241 241 243 247 251 255 259
226 216 197 189 166 146 109 106 133 133 176 204 177 159 138 209 240 248 222 225 234 268 319 333 330 326 322 320 316 309 307 302 295 286 277 268 260 253 248 249 252 257 260 259 256 252 251 250 250 250 253 255 257 260
216 174 181 174 172 181 145 158 178 208 214 169 136 188 190 202 237 18 38 342 309 303 310 315 316 317 317 314 311 309 303 298 295 294 290 284 278 272 263 256 255 251 251 255 252 249 248 248 249 251 254 259 263 263
189 171 148 135 138 194 214 195 207 199 174 175 179 220 236 230 245 314 311 310 310 307 306 308 309 319 330 338 336 334 323 314 312 304 300 303 306 298 291 264 251 250 247 246 247 249 249 248 249 252 255 260 263 263
185 167 138 165 167 208 200 193 188 183 190 200 230 265 273 275 290 306 311 317 329 346 353 343 339 337 335 337 342 341 333 327 314 300 291 285 282 281 279 267 258 252 247 243 243 244 246 250 254 261 267 270 271 270
152 166 128 163 208 176 174 190 211 225 233 236 240 252 267 295 296 332 8 9 15 358 347 349 348 349 350 347 343 342 340 328 317 307 304 302 292 276 262 261 273 264 250 244 241 239 242 250 259 266 272 274 274 273
154 177 150 161 193 169 176 187 181 188 207 218 244 247 284 285 279 43 3 3 357 355 0 6 10 15 15 15 13 10 2 349 332 317 301 295 312 317 302 259 253 267 255 241 231 230 237 249 261 270 278 284 286 285
123 136 134 116 131 160 174 166 158 134 199 229 216 222 236 256 241 67 358 353 352 4 22 32 37 36 36 35 32 27 21 14 8 2 8 14 352 338 329 263 233 221 190 180 197 230 253 267 279 287 292 295 293 291
Wind_Speed_850mb
55 60 65 71 70 70 79 82 60 47 46 42 56 75 63 55 40 31 36 31 15 4 15 18 19 15 13 18 9 8 12 9 10 14 10 8 11 11 7 9 17 26 18 22 34 27 25 22 13 35 10 7 11 20
49 53 59 64 67 60 65 74 63 41 31 38 54 57 56 48 33 20 30 18 9 7 18 28 20 16 19 16 9 28 10 12 20 9 9 5 8 4 4 8 4 8 15 11 14 12 8 7 4 9 10 13 15 28
42 46 51 57 62 57 52 61 58 54 36 28 42 41 35 35 27 14 10 7 11 17 19 14 14 11 16 18 19 10 27 15 15 18 7 5 7 4 7 12 9 3 4 6 4 7 7 13 16 12 13 21 28 30
40 40 42 48 50 52 44 41 44 39 34 31 28 28 28 25 23 8 10 13 13 8 5 9 14 15 17 20 26 31 34 21 18 20 5 4 4 6 5 2 8 3 15 13 6 6 6 26 28 23 25 29 38 42
43 37 36 39 44 47 37 32 26 25 21 19 18 18 9 11 12 11 20 22 15 10 7 16 30 20 16 16 11 13 24 19 15 6 5 3 1 6 3 7 8 11 10 11 9 14 2 5 50 41 37 40 43 51
41 40 32 32 35 38 40 23 20 15 5 9 9 8 9 11 15 20 10 7 3 8 8 5 6 6 9 11 7 2 5 3 2 3 3 5 5 8 1 6 4 16 14 9 2 25 8 12 41 42 45 44 43 47
38 40 37 29 27 30 33 31 13 9 4 10 16 16 18 23 24 17 11 11 31 30 7 7 4 1 9 9 8 6 4 1 2 5 0 0 1 7 4 9 6 20 18 17 22 30 24 36 24 45 48 49 51 48
37 36 38 34 26 24 25 27 26 14 5 3 4 10 18 25 31 32 37 40 32 12 8 4 5 1 8 3 5 8 5 2 9 4 1 0 2 1 9 8 11 23 26 32 37 19 9 38 44 53 53 54 53 52
36 35 35 37 32 27 23 22 25 25 22 22 25 29 30 12 8 12 15 15 10 12 5 2 2 4 14 5 5 5 4 2 1 2 1 3 2 12 11 10 32 45 33 26 33 18 26 43 55 56 58 61 65 60
36 36 34 34 34 36 25 22 24 24 25 22 21 8 7 6 14 14 6 5 6 5 1 3 3 4 13 10 5 7 7 3 4 4 6 2 8 16 22 19 22 46 46 38 47 31 46 52 63 64 62 57 57 58
37 36 36 34 33 36 32 25 23 25 19 10 5 6 10 11 6 5 4 5 8 1 3 2 3 5 5 3 4 5 5 4 4 3 4 3 8 7 13 16 23 38 46 42 38 32 44 53 73 78 72 62 54 51
39 40 37 37 34 30 36 32 24 22 18 13 16 21 11 3 1 6 2 4 1 4 3 4 5 6 4 4 3 2 2 1 6 7 3 6 10 15 9 9 20 33 39 37 31 22 36 48 62 67 65 60 54 51
40 40 40 37 36 28 35 34 31 25 25 19 6 6 2 3 5 9 7 5 5 7 5 4 3 4 3 3 5 2 4 3 1 3 7 9 10 17 14 16 23 29 30 32 29 31 34 45 51 54 58 53 49 47
45 43 42 37 33 34 36 32 32 26 13 5 5 7 5 5 9 8 7 5 5 6 9 5 1 1 2 1 1 2 1 2 3 4 10 3 9 19 22 26 32 38 35 33 32 40 48 54 55 51 48 48 50 47
41 44 40 28 29 42 41 37 32 23 9 8 7 8 11 5 6 5 9 5 9 14 13 6 4 2 3 2 3 3 4 8 10 8 5 6 20 14 30 38 38 38 38 38 42 49 53 53 53 53 51 48 44 39
42 45 20 39 42 41 42 42 32 12 9 10 11 4 4 1 4 9 17 11 19 21 13 5 4 4 4 2 4 11 7 11 6 6 13 22 15 17 32 41 44 42 40 38 43 48 50 53 52 49 46 42 37 34
42 38 47 44 47 44 39 32 11 11 11 9 7 12 14 5 2 7 17 16 33 19 4 4 6 12 5 0 6 9 10 7 11 19 25 21 14 19 33 43 46 47 46 46 47 49 49 48 47 46 45 40 36 34
41 44 46 42 42 40 27 7 9 10 11 10 5 7 10 8 7 9 15 31 25 15 15 8 12 5 10 10 7 8 26 27 26 26 23 19 17 25 39 46 49 50 52 53 54 53 53 52 50 45 39 38 37 36
33 41 42 43 34 29 9 7 9 7 7 4 6 8 7 5 12 11 19 37 19 11 6 7 4 7 9 11 10 17 18 18 19 26 28 27 27 32 39 45 47 49 51 53 57 57 52 46 39 37 38 37 35 35
35 33 37 35 33 10 9 8 9 8 4 6 5 7 4 3 7 13 20 30 21 8 3 7 12 14 19 21 19 21 21 25 28 32 34 31 31 39 45 49 51 49 52 53 53 52 50 49 49 48 45 39 38 37
36 34 32 32 28 19 12 8 7 4 4 6 7 8 4 6 6 12 16 24 15 14 8 36 49 47 40 39 36 35 33 33 34 34 34 29 28 40 43 48 50 53 57 60 61 59 59 57 45 42 41 40 35 35
39 33 33 28 12 10 10 9 3 3 3 3 9 7 5 4 7 9 15 16 17 24 28 33 46 45 48 53 51 52 49 47 44 42 39 35 29 39 50 54 58 62 63 62 60 58 53 44 42 43 44 39 39 41
32 26 15 14 11 10 5 7 5 4 1 4 4 1 4 4 6 11 9 18 21 21 27 38 45 49 53 53 53 50 49 47 46 43 39 35 32 31 39 48 53 57 59 58 55 53 50 43 44 47 47 47 47 47
25 10 11 10 17 6 6 6 5 4 2 1 3 5 4 5 7 3 8 12 13 13 14 19 25 31 31 31 32 27 27 36 39 41 38 39 41 38 35 39 46 52 54 53 52 52 51 51 52 54 54 52 50 50
11 14 12 11 10 5 3 1 1 3 6 5 4 5 4 7 2 6 7 6 8 5 10 12 17 25 28 32 29 20 19 22 25 33 36 39 42 43 41 41 44 48 51 55 56 54 54 53 55 57 57 55 53 51
11 18 21 14 10 11 11 9 10 12 6 6 10 3 5 4 1 11 7 9 6 3 5 10 17 23 25 31 35 32 28 25 26 30 30 36 42 48 49 48 46 44 45 49 55 56 56 54 55 57 58 56 53 53
12 14 14 15 11 13 6 5 6 4 8 12 7 8 5 5 11 8 4 10 6 8 11 20 27 34 40 43 41 38 35 35 34 35 31 31 35 42 48 54 51 41 37 34 36 43 50 51 52 52 52 52 52 51
24 22 14 23 14 13 8 6 10 13 8 12 17 9 13 14 8 2 1 3 11 18 30 37 41 42 40 37 36 34 31 30 33 33 32 32 32 34 37 42 45 48 43 34 32 32 35 39 42 44 46 48 48 46
13 21 25 9 8 10 13 15 10 14 15 22 8 7 8 7 4 4 17 27 34 40 42 38 31 25 25 27 29 27 27 26 25 27 24 23 20 12 13 18 27 32 39 41 36 34 32 31 33 35 38 41 43 44
16 33 9 9 13 13 13 19 10 14 18 18 9 9 12 14 18 30 35 30 20 15 15 21 25 26 30 32 31 27 28 26 24 24 26 24 18 15 12 13 18 23 28 34 38 39 38 37 37 38 38 39 40 41
25 22 8 9 6 8 10 14 13 14 12 12 18 17 15 16 13 6 10 12 10 15 23 21 20 24 27 29 31 32 27 24 23 23 23 24 26 29 29 23 18 21 28 34 37 37 36 34 33 34 35 36 36 36
15 17 7 7 5 9 9 9 7 6 5 4 3 3 4 6 6 3 8 9 14 22 22 23 23 25 28 30 32 32 31 29 25 24 23 19 19 21 22 25 25 21 18 18 18 19 20 22 23 24 25 26 28 31
10 9 6 7 6 7 10 9 4 3 3 3 4 3 3 3 7 1 7 13 20 17 15 17 20 23 27 31 35 37 37 36 33 26 14 11 20 25 22 13 16 10 11 11 9 9 12 15 17 20 24 28 31 31
Wind_Direction_850mb
357 2 6 8 12 15 18 20 30 37 50 82 123 139 123 130 136 160 156 179 202 287 283 256 245 234 244 193 193 146 134 205 163 204 205 202 227 214 231 185 170 189 187 226 218 217 233 152 123 181 197 75 164 164
358 2 6 10 14 18 24 28 33 44 64 108 137 146 144 153 155 151 164 175 247 309 287 290 287 272 245 247 249 192 223 169 182 196 223 189 207 230 279 249 137 198 195 182 217 203 354 210 130 204 186 153 177 162
356 1 6 10 15 19 32 34 35 51 76 121 135 150 150 157 152 156 157 208 269 282 293 261 259 280 253 246 253 236 228 220 207 204 176 195 233 151 198 231 164 163 242 180 152 186 206 247 242 205 194 182 172 165
357 358 4 9 13 20 28 43 43 49 67 89 131 143 162 177 187 227 287 290 290 283 265 261 262 306 277 285 273 258 237 224 222 193 190 186 197 192 231 292 314 141 154 163 252 232 292 246 220 199 176 165 157 158
360 358 0 4 11 17 25 37 48 56 70 89 120 150 167 181 190 291 300 291 281 256 259 281 283 268 300 311 318 238 231 222 200 161 196 201 115 208 246 79 244 200 166 193 238 160 58 237 194 181 173 164 160 159
357 1 357 360 3 11 18 31 50 36 115 136 163 201 216 230 260 292 292 258 14 346 272 282 252 247 302 297 315 255 199 198 260 124 147 196 214 242 67 231 184 204 194 218 246 156 186 132 160 172 168 164 160 161
349 357 359 354 355 358 5 13 4 44 11 232 221 218 231 241 251 248 251 276 302 315 260 293 306 317 342 323 309 316 338 234 129 123 114 8 178 38 209 226 154 200 195 191 175 149 105 159 171 173 169 162 162 157
346 349 354 357 348 345 348 353 359 331 271 311 334 310 296 263 260 263 268 278 287 264 249 257 270 276 19 329 305 338 286 196 44 131 105 252 189 238 252 220 201 183 178 178 181 196 228 181 173 172 176 169 164 162
342 344 346 352 353 340 330 333 336 337 316 286 286 299 298 251 245 240 249 280 250 231 269 180 258 306 350 350 290 277 303 199 173 147 120 227 185 229 220 175 201 198 187 197 185 188 169 173 170 172 175 173 171 165
335 339 342 344 348 350 332 321 326 327 324 315 294 268 246 230 295 284 287 200 216 236 329 78 213 271 347 357 333 309 4 6 318 22 320 227 261 281 255 229 233 212 202 188 165 165 176 178 180 178 181 181 181 169
331 330 334 339 340 348 346 331 324 329 325 312 272 249 281 309 277 255 265 33 347 18 35 131 214 306 347 321 309 9 336 346 300 15 313 296 276 248 293 241 218 204 200 194 204 215 206 200 186 179 178 180 178 171
333 329 326 330 337 334 346 341 330 325 322 279 272 281 280 241 201 63 302 318 233 250 195 182 200 235 273 270 248 202 235 18 269 348 313 269 247 289 279 200 192 194 192 194 201 198 189 190 190 184 175 171 171 170
334 332 326 323 327 327 338 341 336 323 318 295 250 247 257 293 40 152 243 267 271 188 191 180 177 217 259 260 268 259 179 192 106 254 241 244 293 290 248 213 189 186 190 183 177 170 174 180 180 179 169 169 170 173
327 331 322 319 317 321 333 331 336 327 312 261 229 284 171 255 245 190 191 184 171 169 162 153 105 5 329 111 314 215 50 201 194 255 242 244 284 284 224 206 196 186 184 182 173 166 168 172 170 169 172 174 179 181
320 323 322 309 312 317 321 322 322 315 253 241 189 240 216 256 223 210 206 220 197 168 152 136 89 1 3 82 39 83 348 260 218 237 246 269 315 243 200 196 196 189 182 178 176 173 171 172 172 172 177 180 182 189
321 330 327 322 320 317 314 315 314 275 240 224 218 127 185 88 235 219 208 218 179 162 145 111 106 59 258 161 153 215 170 231 250 226 268 301 294 218 198 191 190 192 188 183 180 178 176 178 181 181 181 186 192 198
311 320 331 332 330 322 313 309 281 232 236 227 241 212 203 246 158 167 174 177 169 164 185 138 145 215 106 66 245 200 212 221 238 286 304 299 268 208 190 188 189 190 191 189 185 183 184 183 185 189 194 197 202 205
291 310 317 329 336 335 313 241 239 247 251 228 215 192 199 211 177 177 184 170 166 195 167 196 132 164 205 195 241 235 241 264 287 295 295 291 240 203 196 194 194 196 196 194 192 190 191 193 197 199 200 205 210 214
291 297 307 321 322 328 276 248 235 257 237 237 232 207 205 211 215 197 188 182 181 175 178 152 142 211 226 214 226 253 253 261 286 301 295 276 234 211 202 201 202 199 198 198 198 201 203 206 208 208 214 219 221 223
280 291 299 310 322 286 262 250 237 253 238 186 196 183 219 221 181 184 180 183 182 207 208 217 223 218 212 242 259 267 274 287 292 290 288 283 244 216 206 205 205 202 203 203 206 209 209 211 211 214 220 223 226 231
299 287 296 304 313 226 262 253 250 247 199 194 180 180 233 195 200 185 184 181 194 224 239 233 237 250 259 267 270 272 275 281 283 278 277 282 253 223 214 209 208 211 211 210 212 213 216 221 222 226 230 233 234 234
287 288 289 297 240 240 261 233 228 223 233 200 178 204 208 209 199 195 175 193 234 241 226 258 268 274 274 277 279 278 277 275 273 269 270 263 247 226 220 218 213 215 216 219 222 224 228 229 226 229 234 237 238 238
278 275 269 225 227 234 243 228 209 221 189 224 185 355 236 195 178 178 251 232 251 256 263 275 284 288 287 284 280 277 277 274 269 261 262 254 246 241 236 233 229 229 229 230 229 230 232 231 230 233 237 239 242 244
246 231 228 220 207 230 194 197 208 176 187 179 148 271 232 179 168 191 256 254 248 285 306 325 326 321 315 307 299 294 283 272 268 259 256 245 241 240 242 238 236 236 237 239 238 237 235 232 230 233 237 242 246 249
193 218 200 217 202 127 179 236 282 113 246 190 173 247 190 160 197 232 241 272 233 300 342 4 15 14 9 13 6 339 297 293 286 272 260 256 250 246 245 242 239 237 237 238 238 238 238 237 236 239 242 246 251 255
213 202 188 196 168 174 186 174 203 205 172 190 225 139 153 121 182 245 227 216 220 228 356 6 3 1 356 349 345 345 335 312 293 279 272 260 256 252 251 251 249 248 250 248 245 243 242 241 241 243 247 251 255 259
226 216 197 189 166 146 109 106 133 133 176 204 177 159 138 209 240 248 222 225 234 268 319 333 330 326 322 320 316 309 307 302 295 286 277 268 260 253 248 249 252 257 260 259 256 252 251 250 250 250 253 255 257 260
216 174 181 174 172 181 145 158 178 208 214 169 136 188 190 202 237 18 38 342 309 303 310 315 316 317 317 314 311 309 303 298 295 294 290 284 278 272 263 256 255 251 251 255 252 249 248 248 249 251 254 259 263 263
189 171 148 135 138 194 214 195 207 199 174 175 179 220 236 230 245 314 311 310 310 307 306 308 309 319 330 338 336 334 323 314 312 304 300 303 306 298 291 264 251 250 247 246 247 249 249 248 249 252 255 260 263 263
185 167 138 165 167 208 200 193 188 183 190 200 230 265 273 275 290 306 311 317 329 346 353 343 339 337 335 337 342 341 333 327 314 300 291 285 282 281 279 267 258 252 247 243 243 244 246 250 254 261 267 270 271 270
152 166 128 163 208 176 174 190 211 225 233 236 240 252 267 295 296 332 8 9 15 358 347 349 348 349 350 347 343 342 340 328 317 307 304 302 292 276 262 261 273 264 250 244 241 239 242 250 259 266 272 274 274 273
154 177 150 161 193 169 176 187 181 188 207 218 244 247 284 285 279 43 3 3 357 355 0 6 10 15 15 15 13 10 2 349 332 317 301 295 312 317 302 259 253 267 255 241 231 230 237 249 261 270 278 284 286 285
123 136 134 116 131 160 174 166 158 134 199 229 216 222 236 256 241 67 358 353 352 4 22 32 37 36 36 35 32 27 21 14 8 2 8 14 352 338 329 263 233 221 190 180 197 230 253 267 279 287 292 295 293 291